Weather History for Dalhart, TX

Change the Weather History Date:

Tuesday, November 20, 2012

  Actual Average Record
Temperature  
Mean Temperature 51 °F 42 °F  
Max Temperature 71 °F 57 °F 82 °F (2007)
Min Temperature 31 °F 26 °F 15 °F (1985)
Degree Days  
Heating Degree Days 14 23  
Month to date heating degree days 292 377  
Since 1 July heating degree days 612 737  
Cooling Degree Days 0 0  
Month to date cooling degree days 0 0  
Year to date cooling degree days 1648 1138  
Moisture  
Dew Point 20 °F    
Average Humidity 39    
Maximum Humidity 63    
Minimum Humidity 14    
Precipitation  
Precipitation 0.00 in 0.01 in 0.59 in (1972)
Month to date precipitation 0.00 0.44  
Year to date precipitation 6.35 16.91  
Snow  
Snow 0.00 in 0.10 in 6.00 in (1972)
Month to date snowfall 0.0 0.7  
Since 1 July snowfall 0.0 1.3  
Since 1 September snowfall 0.0 1.3  
Snow Depth 0.00 in    
Sea Level Pressure  
Sea Level Pressure 30.21 in    
Wind  
Wind Speed 10 mph (SW)    
Max Wind Speed 21 mph    
Max Gust Speed 26 mph    
Visibility 10 miles    
Events      
T = Trace of Precipitation, MM = Missing Value Source: NWS Daily Summary

Daily Weather History Graph

Daily Weather History Graph

Search for Another Location

Airport:

Trip Planner

Search our weather history database for the weather conditions in past years. The results will help you decide how hot, cold, wet, or windy it might be!

Date:

Astronomy

Nov. 20, 2012 Rise Set
Actual Time 7:32 AM CST 5:39 PM CST
Civil Twilight 7:04 AM CST 6:06 PM CST
Nautical Twilight 6:33 AM CST 6:38 PM CST
Astronomical Twilight 6:02 AM CST 7:08 PM CST
Moon 1:14 PM CST (11/20) 12:04 AM CST (11/20)
Length of Visible Light 11h 02m
Length of Day
10h 07m
First Quarter, 51% of the Moon is Illuminated
Nov 20
First Quarter
Nov 28
Full
Dec 6
Last Quarter
Dec 13
New
Dec 19
First Quarter

Hourly Weather History & Observations

Time (CST) Temp. Windchill Dew Point Humidity Pressure Visibility Wind Dir Wind Speed Gust Speed Precip Events Conditions
12:53 AM 37.9 °F 30.9 °F 24.1 °F 57% 30.18 in 10.0 mi WNW 10.4 mph - N/A   Clear
1:53 AM 35.6 °F 28.0 °F 23.0 °F 60% 30.25 in 10.0 mi NNW 10.4 mph - N/A   Clear
2:53 AM 35.1 °F 27.9 °F 23.0 °F 61% 30.19 in 10.0 mi NW 9.2 mph - N/A   Clear
3:53 AM 34.0 °F 27.2 °F 21.9 °F 61% 30.19 in 10.0 mi WNW 8.1 mph - N/A   Clear
4:53 AM 34.0 °F 27.2 °F 21.9 °F 61% 30.19 in 10.0 mi NW 8.1 mph - N/A   Clear
5:53 AM 33.1 °F 26.9 °F 21.0 °F 61% 30.23 in 10.0 mi NW 6.9 mph - N/A   Clear
6:53 AM 33.1 °F 27.7 °F 21.0 °F 61% 30.25 in 10.0 mi NW 5.8 mph - N/A   Clear
7:53 AM 30.9 °F 25.2 °F 19.9 °F 64% 30.28 in 10.0 mi WNW 5.8 mph - N/A   Clear
8:53 AM 37.9 °F 33.5 °F 21.9 °F 53% 30.28 in 10.0 mi NW 5.8 mph - N/A   Clear
9:53 AM 50.0 °F - 27.0 °F 41% 30.26 in 10.0 mi West 3.5 mph - N/A   Clear
10:53 AM 57.9 °F - 27.0 °F 31% 30.26 in 10.0 mi WNW 3.5 mph - N/A   Clear
11:53 AM 64.9 °F - 24.1 °F 21% 30.23 in 10.0 mi SSW 9.2 mph - N/A   Clear
12:53 PM 69.1 °F - 19.0 °F 15% 30.18 in 10.0 mi SSW 16.1 mph 20.7 mph N/A   Clear
1:53 PM 69.1 °F - 19.0 °F 15% 30.17 in 10.0 mi South 16.1 mph 24.2 mph N/A   Clear
2:53 PM 70.0 °F - 18.0 °F 14% 30.14 in 10.0 mi South 12.7 mph 20.7 mph N/A   Clear
3:53 PM 69.1 °F - 19.0 °F 15% 30.14 in 10.0 mi South 17.3 mph - N/A   Clear
4:53 PM 66.9 °F - 19.0 °F 16% 30.14 in 10.0 mi South 11.5 mph - N/A   Clear
5:53 PM 57.9 °F - 16.0 °F 19% 30.17 in 10.0 mi South 11.5 mph - N/A   Clear
6:53 PM 55.9 °F - 16.0 °F 21% 30.18 in 10.0 mi South 12.7 mph - N/A   Clear
7:53 PM 48.9 °F - 16.0 °F 27% 30.22 in 10.0 mi South 8.1 mph - N/A   Clear
8:53 PM 44.1 °F 39.5 °F 17.1 °F 34% 30.22 in 10.0 mi South 8.1 mph - N/A   Clear
9:53 PM 42.1 °F 36.1 °F 16.0 °F 35% 30.21 in 10.0 mi South 10.4 mph - N/A   Clear
10:53 PM 36.0 °F 29.0 °F 16.0 °F 44% 30.19 in 10.0 mi South 9.2 mph - N/A   Clear
11:53 PM 35.1 °F 27.4 °F 16.0 °F 46% 30.17 in 10.0 mi SSW 10.4 mph - N/A   Clear